SL-16 R/B (26070 NORAD) Tracking and Keplerian Element Data

This shows tracking and keplerian element data for the satellite.

Feedback or suggestion? Click here.




ElementValue
Catalog26070
NameSL-16 R/B
Epoch Orbit23720
Epoch Day12.90102839
Epoch Year2024
RAAN311.9165
Inclination71.0034
Eccentricity0.0018926
Argument of Perigee295.6164
Mean Anonmoly64.3003
Mean Motion14.15597423
Decay Rate-1.29E-06
L11 26070U 00006B 24012.90102839 -.00000129 00000+0 -41614-4 0 9995
L22 26070 71.0034 311.9165 0018926 295.6164 64.3003 14.15597423237208



Live tracking and technical data element details for SL-16 R/B (NORAD 26070). SL-16 R/B can be tracked NOW for your location showing map with azimuth and elevation plus other details from your city location.







IsCatalogInMostPopularTable: catalog: 26070, numindb: 183
Update: records affected: 1



GetName: 26070 SL-16 R/B

Hit Count: updated at: Sun, 14 Apr 2024 23:40:05 GMT